| time (UTC) | temp F | wind direction | speed MPH | gust MPH | rain 1hr in | rain 24hr in | rain mn in | humidity % | barometer mb |
| 20260502181318 | 59 | 173 | 4.0 | 6.0 | 0.00 | 0.00 | 0.00 | 53 | 1006.2 |
| 20260502180815 | 59 | 176 | 3.0 | 5.0 | 0.00 | 0.00 | 0.00 | 53 | 1006.5 |
| 20260502180312 | 59 | 183 | 4.0 | 4.0 | 0.00 | 0.00 | 0.00 | 52 | 1006.4 |
| 20260502170220 | 60 | 233 | 5.0 | 11.0 | 0.00 | 0.00 | 0.00 | 50 | 1006.7 |
| 20260502164201 | 61 | 195 | 5.0 | 14.0 | 0.00 | 0.00 | 0.00 | 48 | 1006.7 |
| 20260502163656 | 61 | 182 | 3.0 | 16.0 | 0.00 | 0.00 | 0.00 | 48 | 1006.5 |
| 20260502163154 | 61 | 185 | 3.0 | 8.0 | 0.00 | 0.00 | 0.00 | 48 | 1006.8 |
| 20260502162650 | 61 | 180 | 4.0 | 7.0 | 0.00 | 0.00 | 0.00 | 48 | 1006.7 |
| 20260502162147 | 62 | 204 | 11.0 | 18.0 | 0.00 | 0.00 | 0.00 | 48 | 1007.0 |
| 20260502161644 | 62 | 247 | 7.0 | 15.0 | 0.00 | 0.00 | 0.00 | 47 | 1007.0 |
| 20260502161141 | 62 | 189 | 4.0 | 11.0 | 0.00 | 0.00 | 0.00 | 48 | 1007.1 |
| 20260502160639 | 62 | 213 | 4.0 | 11.0 | 0.00 | 0.00 | 0.00 | 47 | 1007.2 |
| 20260502160138 | 62 | 266 | 7.0 | 11.0 | 0.00 | 0.00 | 0.00 | 48 | 1007.1 |
| 20260502152051 | 64 | 209 | 4.0 | 15.0 | 0.00 | 0.00 | 0.00 | 46 | 1007.3 |
| 20260502151549 | 64 | 184 | 5.0 | 10.0 | 0.00 | 0.00 | 0.00 | 47 | 1006.9 |
| 20260502151046 | 64 | 207 | 9.0 | 13.0 | 0.00 | 0.00 | 0.00 | 47 | 1007.4 |
| 20260502150544 | 65 | 224 | 5.0 | 12.0 | 0.00 | 0.00 | 0.00 | 47 | 1007.4 |
| 20260502130428 | 67 | 244 | 3.0 | 11.0 | 0.00 | 0.00 | 0.00 | 50 | 1008.2 |
| 20260502123411 | 66 | 213 | 4.0 | 10.0 | 0.00 | 0.00 | 0.00 | 53 | 1008.6 |
| 20260502122908 | 66 | 183 | 2.0 | 10.0 | 0.00 | 0.00 | 0.00 | 53 | 1008.7 |
| 20260502122404 | 66 | 237 | 4.0 | 8.0 | 0.00 | 0.00 | 0.00 | 53 | 1008.7 |
| 20260502121903 | 66 | 193 | 8.0 | 17.0 | 0.00 | 0.00 | 0.00 | 53 | 1008.6 |
| 20260502121359 | 66 | 238 | 4.0 | 16.0 | 0.00 | 0.00 | 0.00 | 52 | 1008.5 |
| 20260502120857 | 66 | 216 | 2.0 | 9.0 | 0.00 | 0.00 | 0.00 | 53 | 1008.4 |
| 20260502120353 | 66 | 185 | 3.0 | 12.0 | 0.00 | 0.00 | 0.00 | 52 | 1008.7 |
| 20260502115850 | 66 | 170 | 4.0 | 11.0 | 0.00 | 0.00 | 0.00 | 51 | 1008.7 |
| 20260502115347 | 66 | 195 | 9.0 | 13.0 | 0.00 | 0.00 | 0.00 | 51 | 1008.9 |
| 20260502114843 | 66 | 201 | 9.0 | 11.0 | 0.00 | 0.00 | 0.00 | 52 | 1008.9 |
| 20260502114341 | 66 | 189 | 5.0 | 15.0 | 0.00 | 0.00 | 0.00 | 53 | 1008.8 |
| 20260502113837 | 66 | 221 | 5.0 | 11.0 | 0.00 | 0.00 | 0.00 | 54 | 1008.7 |
| 20260502113335 | 66 | 233 | 7.0 | 14.0 | 0.00 | 0.00 | 0.00 | 53 | 1008.6 |
| 20260502112833 | 66 | 249 | 3.0 | 12.0 | 0.00 | 0.00 | 0.00 | 53 | 1008.8 |
| 20260502112330 | 65 | 204 | 9.0 | 13.0 | 0.00 | 0.00 | 0.00 | 53 | 1008.8 |
| 20260502111828 | 65 | 201 | 7.0 | 12.0 | 0.00 | 0.00 | 0.00 | 53 | 1008.9 |
| 20260502111325 | 65 | 187 | 4.0 | 17.0 | 0.00 | 0.00 | 0.00 | 53 | 1009.0 |
| 20260502110823 | 65 | 193 | 5.0 | 9.0 | 0.00 | 0.00 | 0.00 | 55 | 1009.1 |
| 20260502110320 | 65 | 222 | 11.0 | 18.0 | 0.00 | 0.00 | 0.00 | 54 | 1009.2 |
| 20260502105818 | 64 | 199 | 7.0 | 16.0 | 0.00 | 0.00 | 0.00 | 55 | 1009.1 |
| 20260502105314 | 64 | 186 | 4.0 | 11.0 | 0.00 | 0.00 | 0.00 | 55 | 1009.0 |
| 20260502104812 | 64 | 176 | 4.0 | 12.0 | 0.00 | 0.00 | 0.00 | 56 | 1009.3 |
| 20260502104309 | 64 | 212 | 9.0 | 21.0 | 0.00 | 0.00 | 0.00 | 55 | 1009.3 |
| 20260502103806 | 64 | 260 | 1.0 | 14.0 | 0.00 | 0.00 | 0.00 | 57 | 1009.2 |
| 20260502103304 | 64 | 208 | 2.0 | 11.0 | 0.00 | 0.00 | 0.00 | 57 | 1009.3 |
| 20260502102801 | 63 | 183 | 6.0 | 16.0 | 0.00 | 0.00 | 0.00 | 57 | 1009.2 |
| 20260502102257 | 63 | 219 | 12.0 | 14.0 | 0.00 | 0.00 | 0.00 | 58 | 1009.2 |
| 20260502101755 | 62 | 7 | 5.0 | 12.0 | 0.00 | 0.00 | 0.00 | 59 | 1009.5 |
| 20260502101253 | 62 | 205 | 3.0 | 8.0 | 0.00 | 0.00 | 0.00 | 59 | 1009.3 |
| 20260502100751 | 62 | 198 | 4.0 | 15.0 | 0.00 | 0.00 | 0.00 | 59 | 1009.2 |
| 20260502100250 | 61 | 205 | 8.0 | 15.0 | 0.00 | 0.00 | 0.00 | 60 | 1009.4 |
| 20260502091224 | 58 | 207 | 7.0 | 11.0 | 0.00 | 0.00 | 0.00 | 56 | 1010.0 |
| 20260502090721 | 58 | 217 | 8.0 | 13.0 | 0.00 | 0.00 | 0.00 | 56 | 1010.1 |
| 20260502090217 | 57 | 221 | 6.0 | 12.0 | 0.00 | 0.00 | 0.00 | 56 | 1010.1 |
| 20260502071113 | 52 | 202 | 8.0 | 10.0 | 0.00 | 0.00 | 0.00 | 61 | 1010.8 |
| 20260502070611 | 52 | 234 | 8.0 | 14.0 | 0.00 | 0.00 | 0.00 | 61 | 1010.9 |
| 20260502070109 | 52 | 180 | 4.0 | 9.0 | 0.00 | 0.00 | 0.00 | 62 | 1010.9 |
| 20260502065607 | 52 | 212 | 3.0 | 8.0 | 0.00 | 0.00 | 0.00 | 63 | 1010.9 |
| 20260502065104 | 51 | 194 | 3.0 | 5.0 | 0.00 | 0.00 | 0.00 | 63 | 1010.9 |
| 20260502064603 | 51 | 190 | 5.0 | 9.0 | 0.00 | 0.00 | 0.00 | 63 | 1011.1 |
| 20260502064100 | 51 | 176 | 6.0 | 8.0 | 0.00 | 0.00 | 0.00 | 63 | 1011.0 |
| 20260502063557 | 51 | 221 | 4.0 | 15.0 | 0.00 | 0.00 | 0.00 | 63 | 1011.1 |
| 20260502063055 | 50 | 210 | 8.0 | 13.0 | 0.00 | 0.00 | 0.00 | 63 | 1011.2 |
| 20260502062552 | 50 | 195 | 4.0 | 8.0 | 0.00 | 0.00 | 0.00 | 63 | 1011.2 |
| 20260502062050 | 50 | 265 | 5.0 | 10.0 | 0.00 | 0.00 | 0.00 | 64 | 1011.2 |
| 20260502061547 | 50 | 192 | 4.0 | 11.0 | 0.00 | 0.00 | 0.00 | 64 | 1011.3 |
| 20260502061044 | 50 | 194 | 3.0 | 6.0 | 0.00 | 0.00 | 0.00 | 64 | 1011.2 |
| 20260502060545 | 50 | 204 | 3.0 | 8.0 | 0.00 | 0.00 | 0.00 | 65 | 1011.3 |
| 20260502060042 | 50 | 199 | 7.0 | 8.0 | 0.00 | 0.00 | 0.00 | 65 | 1011.4 |
| 20260502055539 | 49 | 198 | 3.0 | 7.0 | 0.00 | 0.00 | 0.00 | 64 | 1011.5 |
| 20260502055038 | 49 | 217 | 4.0 | 7.0 | 0.00 | 0.00 | 0.00 | 65 | 1011.4 |
| 20260502054536 | 49 | 206 | 7.0 | 8.0 | 0.00 | 0.00 | 0.00 | 65 | 1011.5 |
| 20260502054033 | 49 | 179 | 6.0 | 9.0 | 0.00 | 0.00 | 0.00 | 66 | 1011.7 |
| 20260502053530 | 49 | 183 | 4.0 | 5.0 | 0.00 | 0.00 | 0.00 | 66 | 1011.8 |
| 20260502053028 | 49 | 189 | 5.0 | 6.0 | 0.00 | 0.00 | 0.00 | 66 | 1011.9 |
| 20260502052526 | 49 | 223 | 2.0 | 6.0 | 0.00 | 0.00 | 0.00 | 65 | 1011.8 |
| 20260502052024 | 49 | 177 | 4.0 | 8.0 | 0.00 | 0.00 | 0.00 | 65 | 1011.9 |
| 20260502051521 | 48 | 165 | 4.0 | 9.0 | 0.00 | 0.00 | 0.00 | 65 | 1011.9 |
| 20260502051019 | 48 | 181 | 3.0 | 12.0 | 0.00 | 0.00 | 0.00 | 65 | 1011.9 |
| 20260502050515 | 48 | 198 | 3.0 | 5.0 | 0.00 | 0.00 | 0.00 | 64 | 1011.9 |
| 20260502050012 | 48 | 205 | 3.0 | 5.0 | 0.00 | 0.00 | 0.00 | 64 | 1012.2 |
| 20260502045509 | 48 | 184 | 5.0 | 7.0 | 0.00 | 0.00 | 0.00 | 64 | 1012.0 |
| 20260502045006 | 48 | 189 | 4.0 | 6.0 | 0.00 | 0.00 | 0.00 | 63 | 1012.0 |
| 20260502044502 | 48 | 188 | 5.0 | 10.0 | 0.00 | 0.00 | 0.00 | 63 | 1012.1 |
| 20260502043959 | 48 | 198 | 4.0 | 9.0 | 0.00 | 0.00 | 0.00 | 62 | 1012.1 |
| 20260502043456 | 48 | 185 | 5.0 | 8.0 | 0.00 | 0.00 | 0.00 | 61 | 1011.9 |
| 20260502042955 | 48 | 165 | 5.0 | 7.0 | 0.00 | 0.00 | 0.00 | 61 | 1012.2 |
| 20260502042453 | 48 | 188 | 5.0 | 6.0 | 0.00 | 0.00 | 0.00 | 61 | 1012.1 |
| 20260502041950 | 48 | 238 | 2.0 | 8.0 | 0.00 | 0.00 | 0.00 | 61 | 1012.3 |
| 20260502041448 | 48 | 172 | 3.0 | 5.0 | 0.00 | 0.00 | 0.00 | 61 | 1012.3 |
| 20260502040944 | 48 | 193 | 3.0 | 6.0 | 0.00 | 0.00 | 0.00 | 61 | 1012.4 |
| 20260502040441 | 48 | 177 | 3.0 | 5.0 | 0.00 | 0.00 | 0.00 | 61 | 1012.5 |
| 20260502035937 | 48 | 179 | 3.0 | 6.0 | 0.00 | 0.00 | 0.00 | 61 | 1012.5 |
| 20260502035434 | 49 | 180 | 6.0 | 7.0 | 0.00 | 0.00 | 0.00 | 60 | 1012.6 |
| 20260502034932 | 49 | 168 | 3.0 | 5.0 | 0.00 | 0.00 | 0.00 | 59 | 1012.5 |
| 20260502034430 | 49 | 179 | 3.0 | 6.0 | 0.00 | 0.00 | 0.00 | 59 | 1012.5 |
| 20260502033928 | 49 | 169 | 3.0 | 4.0 | 0.00 | 0.00 | 0.00 | 59 | 1012.5 |
| 20260502033425 | 49 | 171 | 5.0 | 5.0 | 0.00 | 0.00 | 0.00 | 59 | 1012.7 |
| 20260502032922 | 49 | 173 | 4.0 | 7.0 | 0.00 | 0.00 | 0.00 | 59 | 1012.9 |
| 20260502032418 | 49 | 174 | 4.0 | 5.0 | 0.00 | 0.00 | 0.00 | 59 | 1012.8 |
| 20260502031915 | 50 | 188 | 3.0 | 5.0 | 0.00 | 0.00 | 0.00 | 59 | 1012.8 |
| 20260502031414 | 50 | 171 | 2.0 | 4.0 | 0.00 | 0.00 | 0.00 | 59 | 1012.9 |
| 20260502030912 | 50 | 172 | 2.0 | 3.0 | 0.00 | 0.00 | 0.00 | 59 | 1012.8 |
| 20260502030410 | 50 | 196 | 0.0 | 3.0 | 0.00 | 0.00 | 0.00 | 59 | 1013.2 |
| 20260502025908 | 50 | 168 | 2.0 | 4.0 | 0.00 | 0.00 | 0.00 | 59 | 1013.1 |
| 20260502025404 | 50 | 170 | 3.0 | 4.0 | 0.00 | 0.00 | 0.00 | 59 | 1013.3 |
| 20260502024902 | 50 | 172 | 3.0 | 3.0 | 0.00 | 0.00 | 0.00 | 59 | 1012.9 |
| 20260502024400 | 50 | 172 | 2.0 | 3.0 | 0.00 | 0.00 | 0.00 | 60 | 1012.9 |
| 20260502023858 | 50 | 165 | 3.0 | 3.0 | 0.00 | 0.00 | 0.00 | 60 | 1013.1 |
| 20260502023355 | 50 | 164 | 2.0 | 4.0 | 0.00 | 0.00 | 0.00 | 60 | 1013.2 |
| 20260502022853 | 50 | 180 | 1.0 | 3.0 | 0.00 | 0.00 | 0.00 | 60 | 1013.1 |
| 20260502022349 | 50 | 180 | 2.0 | 3.0 | 0.00 | 0.00 | 0.00 | 60 | 1013.3 |
| 20260502021846 | 50 | 161 | 3.0 | 5.0 | 0.00 | 0.00 | 0.00 | 60 | 1013.5 |
| 20260502021343 | 50 | 169 | 4.0 | 4.0 | 0.00 | 0.00 | 0.00 | 60 | 1013.3 |
| 20260502020840 | 50 | 164 | 3.0 | 4.0 | 0.00 | 0.00 | 0.00 | 60 | 1013.3 |
| 20260502020338 | 50 | 168 | 3.0 | 4.0 | 0.00 | 0.00 | 0.00 | 60 | 1013.5 |
| 20260502015835 | 50 | 156 | 2.0 | 4.0 | 0.00 | 0.00 | 0.00 | 60 | 1013.6 |
| 20260502015332 | 51 | 171 | 2.0 | 3.0 | 0.00 | 0.00 | 0.00 | 60 | 1013.8 |
| 20260502014829 | 51 | 171 | 4.0 | 5.0 | 0.00 | 0.00 | 0.00 | 60 | 1013.8 |
| 20260502014326 | 51 | 177 | 3.0 | 5.0 | 0.00 | 0.00 | 0.00 | 60 | 1013.7 |
| 20260502013822 | 51 | 162 | 3.0 | 5.0 | 0.00 | 0.00 | 0.00 | 60 | 1013.9 |
| 20260502013318 | 51 | 179 | 4.0 | 6.0 | 0.00 | 0.00 | 0.00 | 60 | 1013.8 |
| 20260502012814 | 51 | 182 | 3.0 | 6.0 | 0.00 | 0.00 | 0.00 | 60 | 1013.7 |
| 20260502012312 | 51 | 160 | 2.0 | 5.0 | 0.00 | 0.00 | 0.00 | 60 | 1013.9 |
| 20260502011809 | 51 | 187 | 4.0 | 5.0 | 0.00 | 0.00 | 0.00 | 60 | 1014.0 |
| 20260502011305 | 51 | 182 | 3.0 | 5.0 | 0.00 | 0.00 | 0.00 | 60 | 1014.0 |
| 20260502010803 | 51 | 164 | 2.0 | 5.0 | 0.00 | 0.00 | 0.00 | 60 | 1014.2 |
| 20260502010259 | 51 | 184 | 5.0 | 7.0 | 0.00 | 0.00 | 0.00 | 60 | 1014.1 |
| 20260502005756 | 51 | 161 | 4.0 | 7.0 | 0.00 | 0.00 | 0.00 | 60 | 1014.3 |
| 20260502005254 | 51 | 181 | 3.0 | 5.0 | 0.00 | 0.00 | 0.00 | 60 | 1014.4 |
| 20260502004751 | 51 | 164 | 3.0 | 5.0 | 0.00 | 0.00 | 0.00 | 60 | 1014.3 |
| 20260502004247 | 51 | 179 | 3.0 | 5.0 | 0.00 | 0.00 | 0.00 | 60 | 1014.4 |
| 20260502003745 | 51 | 168 | 4.0 | 7.0 | 0.00 | 0.00 | 0.00 | 60 | 1014.3 |
| 20260502003242 | 52 | 168 | 3.0 | 6.0 | 0.00 | 0.00 | 0.00 | 60 | 1014.3 |
| 20260502002737 | 52 | 186 | 2.0 | 4.0 | 0.00 | 0.00 | 0.00 | 60 | 1014.5 |
| 20260502002235 | 52 | 169 | 2.0 | 5.0 | 0.00 | 0.00 | 0.00 | 60 | 1014.5 |
| 20260502001732 | 52 | 211 | 3.0 | 4.0 | 0.00 | 0.00 | 0.00 | 60 | 1014.8 |
| 20260502001231 | 52 | 231 | 3.0 | 6.0 | 0.00 | 0.00 | 0.00 | 60 | 1014.5 |
| 20260502000728 | 52 | 192 | 5.0 | 10.0 | 0.00 | 0.00 | 0.00 | 60 | 1014.7 |
| 20260502000226 | 52 | 203 | 5.0 | 6.0 | 0.00 | 0.00 | 0.00 | 60 | 1014.7 |
| 20260501235721 | 52 | 219 | 4.0 | 7.0 | 0.00 | 0.00 | 0.00 | 60 | 1014.8 |
| 20260501235217 | 52 | 194 | 2.0 | 7.0 | 0.00 | 0.00 | 0.00 | 60 | 1014.9 |
| 20260501234713 | 52 | 204 | 3.0 | 7.0 | 0.00 | 0.00 | 0.00 | 59 | 1014.9 |
| 20260501234210 | 52 | 172 | 3.0 | 6.0 | 0.00 | 0.00 | 0.00 | 59 | 1014.7 |
| 20260501233708 | 53 | 166 | 3.0 | 6.0 | 0.00 | 0.00 | 0.00 | 59 | 1014.7 |
| 20260501233205 | 53 | 193 | 3.0 | 4.0 | 0.00 | 0.00 | 0.00 | 59 | 1015.1 |
| 20260501232701 | 53 | 178 | 2.0 | 7.0 | 0.00 | 0.00 | 0.00 | 59 | 1014.9 |
| 20260501232159 | 53 | 175 | 2.0 | 11.0 | 0.00 | 0.00 | 0.00 | 59 | 1015.0 |
| 20260501231656 | 53 | 213 | 6.0 | 8.0 | 0.00 | 0.00 | 0.00 | 59 | 1015.0 |
| 20260501231154 | 53 | 203 | 4.0 | 7.0 | 0.00 | 0.00 | 0.00 | 58 | 1015.0 |
| 20260501230652 | 53 | 167 | 3.0 | 6.0 | 0.00 | 0.00 | 0.00 | 58 | 1015.1 |
| 20260501230150 | 53 | 194 | 4.0 | 5.0 | 0.00 | 0.00 | 0.00 | 58 | 1015.2 |
| 20260501225648 | 53 | 207 | 4.0 | 10.0 | 0.00 | 0.00 | 0.00 | 58 | 1015.1 |
| 20260501225144 | 53 | 191 | 4.0 | 10.0 | 0.00 | 0.00 | 0.00 | 58 | 1015.3 |
| 20260501224641 | 53 | 197 | 6.0 | 10.0 | 0.00 | 0.00 | 0.00 | 57 | 1015.3 |
| 20260501224138 | 53 | 205 | 4.0 | 7.0 | 0.00 | 0.00 | 0.00 | 57 | 1015.3 |
| 20260501223634 | 53 | 183 | 4.0 | 10.0 | 0.00 | 0.00 | 0.00 | 57 | 1015.5 |
| 20260501223131 | 54 | 207 | 6.0 | 9.0 | 0.00 | 0.00 | 0.00 | 57 | 1015.5 |
| 20260501222627 | 54 | 189 | 3.0 | 6.0 | 0.00 | 0.00 | 0.00 | 57 | 1015.7 |
| 20260501222124 | 54 | 212 | 2.0 | 7.0 | 0.00 | 0.00 | 0.00 | 57 | 1015.3 |
| 20260501221621 | 54 | 207 | 3.0 | 11.0 | 0.00 | 0.00 | 0.00 | 56 | 1015.8 |
| 20260501221118 | 54 | 204 | 3.0 | 8.0 | 0.00 | 0.00 | 0.00 | 56 | 1015.7 |
| 20260501220616 | 54 | 180 | 3.0 | 9.0 | 0.00 | 0.00 | 0.00 | 56 | 1015.8 |
| 20260501220113 | 54 | 188 | 3.0 | 9.0 | 0.00 | 0.00 | 0.00 | 56 | 1016.0 |
| 20260501215609 | 54 | 163 | 9.0 | 11.0 | 0.00 | 0.00 | 0.00 | 56 | 1015.9 |
| 20260501215105 | 54 | 212 | 4.0 | 10.0 | 0.00 | 0.00 | 0.00 | 56 | 1015.8 |
| 20260501214600 | 54 | 208 | 6.0 | 8.0 | 0.00 | 0.00 | 0.00 | 55 | 1016.1 |
| 20260501214055 | 55 | 224 | 5.0 | 14.0 | 0.00 | 0.00 | 0.00 | 55 | 1015.8 |
| 20260501213553 | 55 | 250 | 2.0 | 9.0 | 0.00 | 0.00 | 0.00 | 55 | 1016.0 |
| 20260501213049 | 55 | 196 | 4.0 | 10.0 | 0.00 | 0.00 | 0.00 | 55 | 1016.0 |
| 20260501212545 | 55 | 227 | 8.0 | 9.0 | 0.00 | 0.00 | 0.00 | 55 | 1016.1 |
| 20260501212042 | 55 | 231 | 5.0 | 7.0 | 0.00 | 0.00 | 0.00 | 55 | 1016.3 |
| 20260501211539 | 55 | 211 | 8.0 | 8.0 | 0.00 | 0.00 | 0.00 | 55 | 1016.3 |
| 20260501211038 | 55 | 213 | 9.0 | 9.0 | 0.00 | 0.00 | 0.00 | 55 | 1016.2 |
| 20260501210533 | 55 | 213 | 7.0 | 16.0 | 0.00 | 0.00 | 0.00 | 54 | 1016.4 |
| 20260501210030 | 56 | 234 | 3.0 | 9.0 | 0.00 | 0.00 | 0.00 | 54 | 1016.5 |
| 20260501205527 | 56 | 185 | 4.0 | 14.0 | 0.00 | 0.00 | 0.00 | 54 | 1016.5 |
| 20260501205025 | 56 | 199 | 6.0 | 7.0 | 0.00 | 0.00 | 0.00 | 54 | 1016.5 |
| 20260501204520 | 56 | 191 | 3.0 | 10.0 | 0.00 | 0.00 | 0.00 | 53 | 1016.3 |
| 20260501204016 | 56 | 215 | 6.0 | 9.0 | 0.00 | 0.00 | 0.00 | 53 | 1016.5 |
| 20260501203513 | 56 | 190 | 3.0 | 9.0 | 0.00 | 0.00 | 0.00 | 53 | 1016.6 |
| 20260501203011 | 57 | 333 | 0.0 | 9.0 | 0.00 | 0.00 | 0.00 | 53 | 1016.4 |
| 20260501202508 | 57 | 177 | 3.0 | 11.0 | 0.00 | 0.00 | 0.00 | 53 | 1016.5 |
| 20260501202004 | 57 | 207 | 2.0 | 5.0 | 0.00 | 0.00 | 0.00 | 52 | 1016.5 |
| 20260501201501 | 57 | 219 | 7.0 | 9.0 | 0.00 | 0.00 | 0.00 | 52 | 1016.4 |
| 20260501200958 | 57 | 182 | 3.0 | 10.0 | 0.00 | 0.00 | 0.00 | 52 | 1016.2 |
| 20260501200455 | 57 | 221 | 4.0 | 8.0 | 0.00 | 0.00 | 0.00 | 52 | 1016.5 |
| 20260501195952 | 58 | 242 | 4.0 | 7.0 | 0.00 | 0.00 | 0.00 | 52 | 1016.2 |
| 20260501195449 | 58 | 179 | 6.0 | 11.0 | 0.00 | 0.00 | 0.00 | 52 | 1016.4 |
| 20260501194945 | 58 | 187 | 3.0 | 10.0 | 0.00 | 0.00 | 0.00 | 51 | 1016.7 |
| 20260501194440 | 58 | 215 | 5.0 | 9.0 | 0.00 | 0.00 | 0.00 | 51 | 1016.5 |
| 20260501193937 | 59 | 184 | 4.0 | 12.0 | 0.00 | 0.00 | 0.00 | 51 | 1016.6 |
| 20260501193435 | 59 | 205 | 5.0 | 12.0 | 0.00 | 0.00 | 0.00 | 51 | 1016.6 |
| 20260501192933 | 59 | 202 | 5.0 | 9.0 | 0.00 | 0.00 | 0.00 | 51 | 1016.7 |
| 20260501192429 | 59 | 208 | 6.0 | 9.0 | 0.00 | 0.00 | 0.00 | 51 | 1016.7 |
| 20260501191927 | 60 | 178 | 6.0 | 11.0 | 0.00 | 0.00 | 0.00 | 51 | 1016.7 |
| 20260501191424 | 60 | 240 | 3.0 | 8.0 | 0.00 | 0.00 | 0.00 | 51 | 1016.9 |
| 20260501190921 | 60 | 263 | 6.0 | 8.0 | 0.00 | 0.00 | 0.00 | 51 | 1016.8 |
| 20260501190417 | 60 | 211 | 5.0 | 8.0 | 0.00 | 0.00 | 0.00 | 50 | 1017.1 |
| 20260501185917 | 61 | 233 | 4.0 | 7.0 | 0.00 | 0.00 | 0.00 | 51 | 1016.9 |
| 20260501185414 | 61 | 215 | 4.0 | 5.0 | 0.00 | 0.00 | 0.00 | 50 | 1017.0 |
| 20260501184909 | 61 | 247 | 3.0 | 11.0 | 0.00 | 0.00 | 0.00 | 50 | 1017.0 |
| 20260501184406 | 61 | 190 | 4.0 | 6.0 | 0.00 | 0.00 | 0.00 | 50 | 1017.1 |
| 20260501183901 | 61 | 189 | 4.0 | 9.0 | 0.00 | 0.00 | 0.00 | 50 | 1017.1 |
| 20260501183358 | 62 | 203 | 7.0 | 7.0 | 0.00 | 0.00 | 0.00 | 50 | 1017.1 |
| 20260501182855 | 62 | 176 | 4.0 | 7.0 | 0.00 | 0.00 | 0.00 | 50 | 1017.2 |
| 20260501182352 | 62 | 138 | 3.0 | 4.0 | 0.00 | 0.00 | 0.00 | 50 | 1017.2 |
| 20260501181848 | 62 | 161 | 3.0 | 6.0 | 0.00 | 0.00 | 0.00 | 50 | 1017.2 |